1st Responders/1st Detectors/Storm Spotters Weather Summary for Simpson County, KY

Forecast Maps


Reg. NEXRAD Animation


National Fire Danger: Day 1 & 2 Map

Current NWS Watch/Warnings

SPC Convective Day 1 Outlook


Day 2 Outlook

(Click images to enlarge|Page will refresh every 5 minutes)
UK Ag. Weather Center Desktop Severe Weather Service[HERE]
Simpson County, KY Hazardous Weather Outlook Webcast
(9 AM to 9 PM Mon-Fri)
[Fast]
[Dial-up]


UKAWC 1st Detectors/1st Responders Precision Weather Forecast For SIMPSON County, Kentucky
(based on the NWS County Digital Forecast)

ISSUED AT 08:00 UTC ON SUNDAY SEP 15 2019
DAY SUNDAY
CDT 3HR 4A 5A 6A 7A 8A 9A 10A 11A NOON 1P 2P 3P 4P 5P 6P
MAX/MIN -- -- -- 59° -- -- -- -- -- -- -- -- -- -- 92°
TEMP 63° 61° 61° 61° 67° 74° 81° 85° 88° 90° 92° 92° 92° 88° 85°
SKY COVER 10% 11% 13% 9% 8% 10% 12% 12% 12% 13% 12% 12% 11% 9% 7%
Clouds
DEW PT 56° 56° 56° 56° 58° 61° 63° 63° 63° 61° 61° 61° 61° 61° 61°
RH 78% 80% 80% 80% 72% 64% 54% 46% 42% 38% 37% 36% 35% 41% 44%
POP 12HR -- -- -- 0% -- -- -- -- -- -- -- -- -- -- --
RAIN/SNOW (liq.equ) -- -- -- 0.00in -- -- -- -- -- 0.00in -- -- -- -- --
SNOWFALL -- -- -- 0in -- -- -- -- -- 0in -- -- -- -- --
WIND SPEED(MPH) 1 1 1 1 1 2 2 1 1 0 1 1 1 1 1
WIND Gust(MPH) 2 2 2 2 2 5 5 2 2 1 1 2 2 2 2
WIND DIR E E E E SE SE SE E N NW N N N N NE
DEW Lgt Dew Mod Dew Mod Dew Mod Dew Lgt Dew -- -- -- -- -- -- -- -- -- --
HeatIndex 63 61 61 61 67 74 82 86 89 91 92 92 92 89 86
WIND CHILL -- -- -- -- -- -- -- -- -- -- -- -- -- -- --
SPRAY COND
DRY COND
LIVESTOCK HEATSTRESS 62.49 60.76 60.76 60.76 65.74 70.99 75.38 77.22 78.69 79.36 80.50 80.31 80.13 78.52 76.93



DAY MONDAY TUESDAY WEDNESDAY THURSDAY FRIDAY SATURDAY
CDT 6HR 7P 8P 9P 10P 11P MIDN 1A 2A 3A 4A 5A 6A 7A 8A 9A 10A 11A NOON 1P 2P 3P 4P 7P 10P 1A 4A 7A 10A 1P 4P 7P 1A 7A 1P 7P 1A 7A 1P 7P 1A 7A 1P 7P 1A 7A 1P 7P
MAX/MIN -- -- -- -- -- -- -- -- -- -- -- -- 63° -- -- -- -- -- -- -- -- 92° -- -- -- -- 65° -- -- 88° -- -- 63° 88° -- -- 65° 88° -- -- 65° 88° -- -- 65° 88° --
TEMP 81° 79° 76° 74° 72° 70° 70° 68° 67° 65° 65° 63° 65° 70° 76° 83° 86° 90° 90° 92° 92° 90° 83° 76° 72° 68° 67° 79° 86° 86° 79° 70° 65° 85° 79° 68° 65° 86° 81° 72° 67° 85° 79° 70° 65° 85° 79°
SKY COVER 5% 6% 6% 6% 6% 6% 6% 6% 7% 7% 8% 8% 8% 4% 3% 2% 3% 4% 4% 6% 8% 11% 10% 17% 7% 5% 10% 18% 28% 16% 14% 16% 7% 19% 25% 23% 23% 39% 36% 37% 36% 23% 27% 31% 38% 28% 21%
Clouds
DEW PT 63° 63° 63° 61° 61° 61° 61° 61° 59° 58° 58° 58° 58° 58° 61° 61° 63° 63° 63° 63° 63° 63° 67° 67° 68° 65° 65° 67° 67° 65° 65° 63° 61° 63° 63° 63° 63° 63° 63° 63° 61° 63° 63° 63° 59° 61° 63°
RH 53% 58% 64% 66% 70% 73% 72% 76% 75% 78% 81% 84% 78% 65% 57% 48% 45% 42% 40% 39% 39% 41% 57% 76% 89% 90% 96% 66% 52% 48% 62% 81% 90% 46% 58% 81% 90% 46% 56% 76% 81% 46% 60% 78% 80% 44% 58%
POP 12HR 1% -- -- -- -- -- -- -- -- -- -- -- 1% -- -- -- -- -- -- -- -- -- 4% -- -- -- 1% -- -- -- 1% -- 0% -- 1% -- 0% -- 3% -- 4% -- 8% -- 4% -- 8%
RAIN/SNOW (liq.equ) 0.00in -- -- -- -- -- 0.00in -- -- -- -- -- 0.00in -- -- -- -- -- 0.00in -- -- -- 0.00in -- 0.00in -- 0.00in -- 0.00in -- 0.00in -- -- -- -- -- -- -- -- -- -- -- -- -- -- -- --
SNOWFALL 0in -- -- -- -- -- 0in -- -- -- -- -- 0in -- -- -- -- -- 0in -- -- -- 0in -- 0in -- 0in -- 0in -- 0in -- -- -- -- -- -- -- -- -- -- -- -- -- -- -- --
WIND SPEED(MPH) 2 2 1 1 1 1 1 1 0 0 0 0 0 0 0 1 1 2 2 2 5 5 2 1 1 1 1 5 6 7 6 2 1 5 2 1 1 6 2 5 2 7 2 2 1 6 2
WIND DIR NE E E E SE SE SE SE S S S S SW NW NW NW NW N N N N N N NE NE NE NE NE N N NE E E NE NE SE S S S S S SW S S S W S
HeatIndex 83 79 76 74 72 70 70 68 67 65 65 63 65 70 76 83 87 91 92 93 93 92 86 76 72 68 67 82 89 88 82 70 65 86 79 68 65 88 82 72 67 86 79 70 65 86 79
WIND CHILL -- -- -- -- -- -- -- -- -- -- -- -- -- -- -- -- -- -- -- -- -- -- -- -- -- -- -- -- -- -- -- -- -- -- -- -- -- -- -- -- -- -- -- -- -- -- --
SPRAY COND
DRY COND
LIVESTOCK HEATSTRESS 75.26 74.33 72.59 71.16 69.82 68.34 68.28 66.79 65.87 64.25 64.35 62.63 64.25 67.84 71.93 76.08 77.77 80.05 79.70 80.86 80.86 79.88 77.28 73.73 71.20 67.49 66.82 75.22 78.82 78.22 74.78 68.83 64.66 77.22 74.33 67.04 64.66 77.92 75.63 70.26 66.14 77.22 74.56 68.64 64.32 76.93 74.33

Click on individual weather variable above in left-hand column (ie., TEMP, RH, QPF 12HR) to view state forecast maps






NWS 48 Hr. Forecast Maps,

Regional Hourly Observations For SIMPSON County, Kentucky
Issued at 400 AM EDT SUN SEP 15 2019
WESTERN AND SOUTH CENTRAL KENTUCKY
  
CITY           SKY/WX    TMP DP  RH WIND       PRES   REMARKS
PADUCAH        FAIR      64  61  90 CALM      30.14F                  
HENDERSON      FAIR      57  55  93 CALM      30.18S                  
OWENSBORO      FAIR      63  56  78 CALM      30.18F                  
HOPKINSVILLE   FAIR      67  56  67 CALM      30.16F                  
BOWLING GREEN  FAIR      64  56  75 CALM      30.18F                  
GLASGOW        FAIR      61  53  74 CALM      30.19F                  


Current NOWCAST not available:
Nowcasts are not issued routinely during fair weather. Only when
precipitation or other significant weather is occuring in this county will these
forecasts be issued. Currently, there is no short term forecast in effect.


Fire Weather Forecast For SIMPSON County, KY
Provided by the National Weather Service:

Issued at: Sun Sep 15 04:05:01 EDT 2019

305 AM EDT Sun Sep 15 2019 /205 AM CDT Sun Sep 15 2019/

                      Today        Tonight      Mon          

CLOUD COVER           Mclear       Mclear       Mclear       
PRECIP TYPE           None         None         Tstms        
CHANCE PRECIP (%)     0            0            10           
TEMP (24H TREND)      93 (+6)      63 (+4)      93           
RH % (24H TREND)      30 (-1)      90 (+8)      38           
20FTWND-VAL/AM(MPH)   Lgt/Var                   Lgt/Var      
20FTWND-RDG/PM(MPH)   Lgt/Var      Lgt/Var      Lgt/Var      
PRECIP AMOUNT         0.00         0.00         0.00         
MIXING HGT(FT-AGL/MSL)6184                      7638         
TRANSPORT WND (MPH)   W  3                      NW 13        
VENT RATE (KT-FT)     17970                     87382        
DISPERSION            Poor                      Good         
DSI                   SLGT UNSTBL  SLGT UNSTBL  MOD UNSTBL   
LAL                   1            1            2            
HAINES INDEX          4            5            4            
ADI EARLY             11 POOR      2 VERY POOR  54 GEN GOOD  
ADI LATE              17 GEN POOR  2 VERY POOR  64 GOOD      
MAX LVORI EARLY       4            3            5            
MAX LVORI LATE        2            6            2            

REMARKS...ADI IS ATMOSPHERIC DISPERSION INDEX BY LAVDAS.        
LVORI IS LOW VISIBILITY OCCURRENCE RISK INDEX.

.TUESDAY...Mostly clear. Lows in the mid 60s. Highs around 90.
Light winds. 
.WEDNESDAY...Mostly clear. Lows in the lower 60s. Highs around
90. Light winds. 
.THURSDAY...Mostly clear. Lows in the mid 60s. Highs around 90.
South winds up to 5 mph. 
.FRIDAY...Partly cloudy. Lows in the mid 60s. Highs in the upper
80s. South winds up to 5 mph. 
.SATURDAY...Partly cloudy. Lows in the mid 60s. Highs around 90.
Southwest winds up to 5 mph. 

SPC's Fire Weather Web Tool (Excellent!), SPC's Fire Weather Outlooks, NWS Fire Weather WEB, Fire Danger Class Map,
Keetch-Byram Drought Index, ROMAN Web, Haines Index ,
WFAS's 10-hr Dead Fuel Moist., WFAS's 100-hr Dead Fuel Moist., Probablity of Ignition, Visual blackness Map, Palmer Drought Index, HPC's Rainfall Forecast Maps


Hazardous Weather Outlook For SIMPSON County, Kentucky
311 AM EDT Sun Sep 15 2019 /211 AM CDT Sun Sep 15 2019/

 DAY ONE  Today and Tonight.

No hazardous weather is expected at this time.

 DAYS TWO THROUGH SEVEN  Monday through Saturday.

Isolated storms are possible across Central Kentucky Monday 
afternoon. One or two storms may have some gusty winds, quick heavy 
burst of rain and cloud to ground lightning strikes. 

 SPOTTER INFORMATION STATEMENT  

Spotter activation is not anticipated.

Latest SIMPSON County, Kentucky Watches, Warnings and Advisories.
Additional Drought Info.: UKAWC Drought Page, Kentucky Drought Watch


7-Day Forecast For SIMPSON County, KY

TODAY
Mostly sunny. Highs in the lower 90s. Southeast winds up to 5 mph shifting to the north in the afternoon.

TONIGHT
Mostly clear. Lows in the mid 60s. East winds up to 5 mph.

MONDAY
Sunny. Highs in the lower 90s. North winds up to 5 mph.

MONDAY NIGHT
Mostly clear. Lows in the mid 60s. North winds up to 5 mph.

TUESDAY
Mostly sunny. Highs in the upper 80s. North winds up to 5 mph.

TUESDAY NIGHT
Mostly clear. Lows in the lower 60s.

WEDNESDAY
Mostly sunny. Highs around 90.

WEDNESDAY NIGHT
Partly cloudy. Lows in the mid 60s.

THURSDAY
Mostly sunny. Highs in the upper 80s.

THURSDAY NIGHT
Partly cloudy. Lows in the mid 60s.

FRIDAY
Partly cloudy. Highs in the upper 80s.

FRIDAY NIGHT
Partly cloudy. Lows in the mid 60s.

SATURDAY
Partly cloudy. Highs in the upper 80s.

Ag Weather Center, Department of Biosystems & Agricultural Engineering, University of Kentucky